Weather History for Hartford, CT

Change the Weather History Date:

Wednesday, February 12, 2014

  Actual Average Record
Temperature  
Mean Temperature 16 °F -  
Max Temperature 25 °F 37 °F 61 °F (1981)
Min Temperature 6 °F 15 °F -10 °F (1979)
Degree Days  
Heating Degree Days 50    
Moisture  
Dew Point 3 °F    
Average Humidity 53    
Maximum Humidity 69    
Minimum Humidity 32    
Precipitation  
Precipitation 0.00 in - - ()
Sea Level Pressure  
Sea Level Pressure 30.49 in    
Wind  
Wind Speed 4 mph (North)    
Max Wind Speed 9 mph    
Max Gust Speed -    
Visibility 10 miles    
Events      
Averages and records for this station are not official NWS values.
T = Trace of Precipitation, MM = Missing Value Source: NWS Daily Summary

Daily Weather History Graph

Daily Weather History Graph

Search for Another Location

Airport:

Trip Planner

Search our weather history database for the weather conditions in past years. The results will help you decide how hot, cold, wet, or windy it might be!

Date:

Astronomy

Feb. 12, 2014 Rise Set
Actual Time 6:50 AM EST 5:20 PM EST
Civil Twilight 6:21 AM EST 5:48 PM EST
Nautical Twilight 5:48 AM EST 6:21 PM EST
Astronomical Twilight 5:16 AM EST 6:53 PM EST
Moon 3:30 PM EST (2/12) 5:05 AM EST (2/12)
Length of Visible Light 11h 27m
Length of Day
10h 30m
Waxing Gibbous, 95% of the Moon is Illuminated
Feb 12
Waxing Gibbous
Feb 14
Full
Feb 22
Last Quarter
Mar 1
New
Mar 8
First Quarter

Hourly Weather History & Observations

Time (EST) Temp. Windchill Dew Point Humidity Pressure Visibility Wind Dir Wind Speed Gust Speed Precip Events Conditions
12:53 AM 15.1 °F 4.2 °F 1.0 °F 54% 30.48 in 10.0 mi NNW 8.1 mph - N/A   Clear
1:53 AM 14.0 °F 5.1 °F 1.0 °F 56% 30.49 in 10.0 mi NW 5.8 mph - N/A   Clear
2:53 AM 12.9 °F 3.8 °F -0.0 °F 56% 30.50 in 10.0 mi North 5.8 mph - N/A   Clear
3:53 AM 12.0 °F 1.5 °F -0.0 °F 59% 30.51 in 10.0 mi NNW 6.9 mph - N/A   Clear
4:53 AM 10.0 °F -0.9 °F -0.0 °F 64% 30.53 in 10.0 mi NNW 6.9 mph - N/A   Clear
5:53 AM 9.0 °F -0.9 °F -0.9 °F 64% 30.53 in 10.0 mi NNE 5.8 mph - N/A   Clear
6:53 AM 6.1 °F -4.3 °F -2.0 °F 69% 30.54 in 10.0 mi NNE 5.8 mph - N/A   Clear
7:53 AM 8.1 °F - -0.9 °F 67% 30.56 in 10.0 mi Calm Calm - N/A   Clear
8:53 AM 10.9 °F -1.8 °F -0.9 °F 59% 30.58 in 10.0 mi NNE 9.2 mph - N/A   Clear
9:53 AM 14.0 °F 2.9 °F -2.0 °F 49% 30.60 in 10.0 mi NNE 8.1 mph - N/A   Clear
10:53 AM 16.0 °F - -2.0 °F 45% 30.58 in 10.0 mi Calm Calm - N/A   Clear
11:53 AM 19.0 °F 12.3 °F -0.9 °F 42% 30.57 in 10.0 mi WNW 4.6 mph - N/A   Clear
12:53 PM 21.0 °F - -2.0 °F 36% 30.56 in 10.0 mi Calm Calm - N/A   Clear
1:53 PM 24.1 °F - -2.0 °F 32% 30.52 in 10.0 mi Calm Calm - N/A   Clear
2:53 PM 25.0 °F - -0.9 °F 33% 30.48 in 10.0 mi Calm Calm - N/A   Clear
3:53 PM 25.0 °F - -0.0 °F 34% 30.48 in 10.0 mi Calm Calm - N/A   Clear
4:53 PM 24.1 °F - 1.0 °F 37% 30.48 in 10.0 mi Calm Calm - N/A   Clear
5:53 PM 21.9 °F 17.2 °F 3.0 °F 44% 30.49 in 10.0 mi South 3.5 mph - N/A   Clear
6:53 PM 21.0 °F - 3.0 °F 46% 30.47 in 10.0 mi Calm Calm - N/A   Clear
7:53 PM 19.0 °F - 3.9 °F 52% 30.46 in 10.0 mi Calm Calm - N/A   Clear
8:09 PM 19.0 °F - 6.1 °F 57% 30.45 in 10.0 mi Calm Calm - N/A   Mostly Cloudy
8:53 PM 21.0 °F - 10.0 °F 63% 30.44 in 10.0 mi Calm Calm - N/A   Overcast
9:10 PM 21.9 °F - 10.0 °F 60% 30.44 in 10.0 mi Calm Calm - N/A   Overcast
9:53 PM 21.9 °F - 10.9 °F 63% 30.42 in 10.0 mi Calm Calm - N/A   Overcast
10:15 PM 23.0 °F - 10.0 °F 58% 30.41 in 10.0 mi Calm Calm - N/A   Overcast
10:53 PM 21.9 °F 15.7 °F 12.0 °F 66% 30.39 in 10.0 mi North 4.6 mph - N/A   Overcast
11:11 PM 23.0 °F 18.4 °F 12.0 °F 63% 30.38 in 10.0 mi NNW 3.5 mph - N/A   Overcast
11:53 PM 21.9 °F 15.7 °F 10.9 °F 63% 30.36 in 10.0 mi NNW 4.6 mph - N/A   Overcast